TimeEDT,TemperatureF,Dew PointF,Humidity,Sea Level PressureIn,VisibilityMPH,Wind Direction,Wind SpeedMPH,Gust SpeedMPH,PrecipitationIn,Events,Conditions,WindDirDegrees,DateUTC
12:14 AM,51.3,48.6,90,29.77,10.0,SSE,3.5,-,N/A,Rain,Light Rain,160,2012-09-22 04:14:00
12:34 AM,51.3,48.6,90,29.76,10.0,SSE,4.6,-,N/A,,Overcast,160,2012-09-22 04:34:00
12:55 AM,51.3,48.6,90,29.75,10.0,South,3.5,-,N/A,Rain,Light Rain,180,2012-09-22 04:55:00
1:14 AM,51.3,48.6,90,29.74,10.0,Calm,Calm,-,N/A,,Overcast,0,2012-09-22 05:14:00
1:35 AM,51.3,48.4,90,29.73,10.0,SSW,3.5,-,N/A,,Overcast,200,2012-09-22 05:35:00
1:55 AM,51.1,48.4,90,29.73,10.0,SSW,3.5,-,N/A,,Overcast,200,2012-09-22 05:55:00
2:14 AM,50.9,48.2,90,29.73,10.0,Calm,Calm,-,N/A,,Overcast,0,2012-09-22 06:14:00
2:35 AM,50.5,48.2,92,29.73,10.0,SSW,3.5,-,N/A,,Scattered Clouds,210,2012-09-22 06:35:00
2:55 AM,50.9,48.2,90,29.73,10.0,Calm,Calm,-,N/A,,Mostly Cloudy,0,2012-09-22 06:55:00
3:14 AM,50.4,47.7,90,29.73,10.0,WSW,3.5,-,N/A,,Overcast,240,2012-09-22 07:14:00
3:55 AM,49.1,46.4,90,29.74,7.0,Calm,Calm,-,N/A,,Scattered Clouds,0,2012-09-22 07:55:00
4:35 AM,48.6,45.9,90,29.75,5.0,WSW,3.5,-,N/A,,Scattered Clouds,240,2012-09-22 08:35:00
4:55 AM,48.4,46.0,92,29.75,5.0,WSW,4.6,-,N/A,,Scattered Clouds,240,2012-09-22 08:55:00
5:14 AM,49.1,46.8,92,29.75,10.0,WSW,8.1,-,N/A,,Scattered Clouds,250,2012-09-22 09:14:00
5:35 AM,50.0,46.4,87,29.74,10.0,West,9.2,-,N/A,,Overcast,270,2012-09-22 09:35:00
5:55 AM,49.3,44.6,84,29.75,10.0,West,6.9,-,N/A,,Overcast,260,2012-09-22 09:55:00
6:14 AM,49.6,44.6,83,29.76,10.0,West,9.2,-,N/A,Rain,Light Rain,260,2012-09-22 10:14:00
6:35 AM,49.3,45.1,86,29.77,10.0,WSW,12.7,17.3,N/A,Rain,Rain,250,2012-09-22 10:35:00
6:54 AM,49.3,45.5,87,29.78,7.0,West,9.2,-,N/A,Rain,Rain,260,2012-09-22 10:54:00
7:15 AM,49.3,45.5,87,29.78,10.0,West,9.2,-,N/A,Rain,Light Rain,270,2012-09-22 11:15:00
7:35 AM,49.3,44.6,84,29.79,10.0,West,9.2,-,N/A,,Light Drizzle,260,2012-09-22 11:35:00
7:54 AM,49.1,45.0,86,29.79,10.0,SW,10.4,-,N/A,Rain,Light Rain,220,2012-09-22 11:54:00
8:15 AM,49.1,44.4,84,29.79,10.0,SW,9.2,-,N/A,Rain,Light Rain,230,2012-09-22 12:15:00
8:35 AM,48.9,44.1,83,29.79,10.0,WSW,6.9,-,N/A,,Mostly Cloudy,240,2012-09-22 12:35:00
8:54 AM,49.5,45.5,86,29.80,10.0,WSW,6.9,-,N/A,,Scattered Clouds,250,2012-09-22 12:54:00
9:15 AM,51.4,45.9,81,29.81,10.0,WSW,10.4,-,N/A,,Clear,250,2012-09-22 13:15:00
9:34 AM,52.7,46.9,81,29.81,10.0,West,9.2,-,N/A,,Clear,260,2012-09-22 13:34:00
9:55 AM,54.1,46.8,76,29.81,10.0,West,11.5,-,N/A,,Clear,280,2012-09-22 13:55:00
10:15 AM,55.0,45.5,70,29.80,10.0,WNW,11.5,-,N/A,,Scattered Clouds,290,2012-09-22 14:15:00
10:34 AM,55.4,44.2,66,29.81,10.0,West,12.7,18.4,N/A,,Scattered Clouds,270,2012-09-22 14:34:00
10:55 AM,55.8,42.6,61,29.82,10.0,NW,10.4,17.3,N/A,,Mostly Cloudy,310,2012-09-22 14:55:00
11:15 AM,56.3,42.1,59,29.82,10.0,NW,9.2,-,N/A,,Mostly Cloudy,310,2012-09-22 15:15:00
11:34 AM,56.3,40.6,56,29.83,10.0,NNW,8.1,-,N/A,,Mostly Cloudy,330,2012-09-22 15:34:00
11:55 AM,56.3,40.3,55,29.83,10.0,NW,9.2,-,N/A,,Mostly Cloudy,310,2012-09-22 15:55:00
12:15 PM,55.4,39.6,55,29.83,10.0,WNW,6.9,-,N/A,,Mostly Cloudy,290,2012-09-22 16:15:00
12:34 PM,55.4,39.6,55,29.83,10.0,West,8.1,-,N/A,,Overcast,270,2012-09-22 16:34:00
1:15 PM,55.0,38.5,54,29.85,10.0,West,8.1,-,N/A,,Overcast,270,2012-09-22 17:15:00
1:35 PM,55.4,38.8,54,29.85,10.0,West,8.1,-,N/A,,Overcast,270,2012-09-22 17:35:00
2:14 PM,56.5,39.7,54,29.84,10.0,WNW,10.4,-,N/A,,Mostly Cloudy,290,2012-09-22 18:14:00
2:35 PM,56.3,37.8,50,29.85,10.0,WNW,6.9,-,N/A,,Scattered Clouds,300,2012-09-22 18:35:00
3:14 PM,56.1,37.8,50,29.87,10.0,WNW,10.4,-,N/A,,Mostly Cloudy,290,2012-09-22 19:14:00
3:35 PM,56.3,38.3,51,29.88,10.0,West,11.5,16.1,N/A,,Mostly Cloudy,280,2012-09-22 19:35:00
3:54 PM,56.7,38.5,51,29.88,10.0,West,11.5,-,N/A,,Scattered Clouds,280,2012-09-22 19:54:00
4:15 PM,57.2,38.3,49,29.88,10.0,West,9.2,-,N/A,,Clear,280,2012-09-22 20:15:00
4:35 PM,57.4,36.9,46,29.89,10.0,WNW,12.7,-,N/A,,Scattered Clouds,290,2012-09-22 20:35:00
4:54 PM,55.4,39.4,55,29.91,10.0,WNW,9.2,26.5,N/A,,Mostly Cloudy,290,2012-09-22 20:54:00
5:54 PM,55.6,39.7,55,29.95,10.0,WNW,8.1,-,N/A,,Mostly Cloudy,290,2012-09-22 21:54:00
6:15 PM,53.1,43.5,70,29.97,4.0,NNW,5.8,9.2,N/A,Rain,Light Rain,330,2012-09-22 22:15:00
6:35 PM,51.8,44.1,75,29.97,10.0,West,4.6,-,N/A,,Scattered Clouds,280,2012-09-22 22:35:00
6:54 PM,50.9,44.8,80,29.98,10.0,WSW,3.5,-,N/A,,Scattered Clouds,250,2012-09-22 22:54:00
7:15 PM,50.0,44.1,80,29.99,10.0,West,3.5,-,N/A,,Clear,270,2012-09-22 23:15:00
7:35 PM,50.5,45.0,81,30.00,10.0,WNW,5.8,-,N/A,,Mostly Cloudy,290,2012-09-22 23:35:00
7:55 PM,50.9,41.0,69,30.01,10.0,NW,10.4,18.4,N/A,Rain,Light Rain,310,2012-09-22 23:55:00
8:15 PM,48.7,40.1,72,30.01,10.0,WNW,8.1,-,N/A,,Scattered Clouds,300,2012-09-23 00:15:00
8:34 PM,48.2,39.9,73,30.02,10.0,WNW,6.9,-,N/A,,Scattered Clouds,300,2012-09-23 00:34:00
8:55 PM,47.1,39.6,75,30.03,10.0,WNW,5.8,-,N/A,,Clear,300,2012-09-23 00:55:00
9:15 PM,46.8,39.9,77,30.03,10.0,WNW,5.8,-,N/A,,Clear,290,2012-09-23 01:15:00
9:34 PM,46.6,39.7,77,30.04,10.0,West,5.8,-,N/A,,Clear,280,2012-09-23 01:34:00
9:55 PM,45.0,39.2,80,30.04,10.0,WNW,4.6,-,N/A,,Clear,290,2012-09-23 01:55:00
10:15 PM,45.3,39.4,80,30.05,10.0,West,5.8,-,N/A,,Clear,270,2012-09-23 02:15:00
10:34 PM,43.0,38.3,84,30.05,10.0,West,4.6,-,N/A,,Clear,270,2012-09-23 02:34:00
10:55 PM,43.3,39.2,85,30.06,10.0,West,4.6,-,N/A,,Scattered Clouds,260,2012-09-23 02:55:00
11:15 PM,43.7,39.2,84,30.07,10.0,WSW,3.5,-,N/A,,Mostly Cloudy,250,2012-09-23 03:15:00
11:34 PM,44.6,40.1,84,30.07,10.0,SW,3.5,-,N/A,,Overcast,230,2012-09-23 03:34:00
11:55 PM,44.1,39.9,85,30.07,10.0,WSW,3.5,-,N/A,,Overcast,250,2012-09-23 03:55:00